Погода в Куракине

Россия / Республика Мордовия     54°57′35″N   46°08′05″E
темп.,
°C
ветер,
м/с
пор.,
м/с
влажн.,
%
обл.,
%
осадки,
мм/ч
давл.,
гПа
погр.,
м
23 сентября, чт
чт2300:00+9юв4890100 0.0 1017470
03:00+7в4996100 0.1 1017281
06:00+9вюв51291100 0.4 1017480
09:00+11юв6117864 0.4 1017588
12:00+12юв6106898 0.0 1017587
15:00+13юв7107897 0.1 1016693
18:00+11юв61271100 0.0 1016623
21:00+10ююв71485100 0.5 1016774
24 сентября, пт
пт2400:00+8юв51295100 3.3 1016563
03:00+9юв51193100 4.2 1014512
06:00+9юв4893100 0.0 1013504
09:00+9юв3693100 0.0 1013353
12:00+9юв3595100 0.6 1012287
15:00+10юв3593100 0.7 1011504
18:00+9юв5995100 0.2 1011464
21:00+9ююв71489100 1.6 1012849
25 сентября, сб
сб2500:00+8юв4992100 0.6 1011456
03:00+8вюв4892100 1.3 1005462
06:00+8в1397100 1.0 1009205
09:00+8в2495100 1.3 1009254
12:00+8вюв2494100 1.2 1009290
15:00+8в1194100 1.6 1009163
18:00+8св1195100 0.1 101031
21:00+8юз1195100 0.1 101024
26 сентября, вс
вс2600:00+8зюз1195100 0.0 101013
03:00+7зсз119551 0.0 101013
06:00+6з119692 0.0 101111
09:00+9з1183100 0.0 1010291
12:00+12с1169100 0.1 1010837
15:00+13св3364100 0.2 10111041
18:00+9всв3688100 0.2 1012182
21:00+8св249263 0.3 1013117
27 сентября, пн
пн2700:00+8ссв358778 0.0 1013191
03:00+6ссв369423 0.0 1015136
06:00+7св4992100 0.3 1016417
09:00+8св61090100 0.4 1018647
12:00+6св61190100 0.4 1021630
15:00+5всв61190100 0.8 1024738
18:00+6всв51189100 0.1 1026930
21:00+6св3885100 0.1 1027510